Time,TemperatureF,DewpointF,PressureIn,WindDirection,WindDirectionDegrees,WindSpeedMPH,WindSpeedGustMPH,Humidity,HourlyPrecipIn,Conditions,Clouds,dailyrainin,SoftwareType,DateUTC
2013-01-28 00:03:00,18.6,3.4,30.50,WNW,294,0.0,5.0,51,0.00,,,0.00,Wunderground v.1.15,2013-01-28 05:03:00,
2013-01-28 00:05:00,18.6,3.4,30.50,WNW,294,0.0,5.0,51,0.00,,,0.00,Wunderground v.1.15,2013-01-28 05:05:00,
2013-01-28 00:11:00,18.5,4.2,30.50,WNW,294,0.0,5.0,53,0.00,,,0.00,Wunderground v.1.15,2013-01-28 05:11:00,
2013-01-28 00:17:00,18.5,4.6,30.49,WNW,294,0.0,5.0,54,0.00,,,0.00,Wunderground v.1.15,2013-01-28 05:17:00,
2013-01-28 00:19:00,18.4,4.9,30.49,WNW,294,0.0,5.0,55,0.00,,,0.00,Wunderground v.1.15,2013-01-28 05:19:00,
2013-01-28 00:25:00,18.3,5.2,30.49,WNW,294,0.0,5.0,56,0.00,,,0.00,Wunderground v.1.15,2013-01-28 05:25:00,
2013-01-28 00:31:00,18.3,4.8,30.49,WNW,294,0.0,5.0,55,0.00,,,0.00,Wunderground v.1.15,2013-01-28 05:31:00,
2013-01-28 00:37:00,18.3,5.6,30.49,WNW,294,0.0,5.0,57,0.00,,,0.00,Wunderground v.1.15,2013-01-28 05:37:00,
2013-01-28 00:43:00,18.3,5.2,30.49,WNW,294,0.0,5.0,56,0.00,,,0.00,Wunderground v.1.15,2013-01-28 05:43:00,
2013-01-28 00:49:00,18.3,4.8,30.49,WNW,294,0.0,5.0,55,0.00,,,0.00,Wunderground v.1.15,2013-01-28 05:49:00,
2013-01-28 00:55:00,18.4,5.3,30.49,WNW,294,0.0,5.0,56,0.00,,,0.00,Wunderground v.1.15,2013-01-28 05:55:00,
2013-01-28 01:01:00,18.4,5.3,30.49,WNW,294,0.0,5.0,56,0.00,,,0.00,Wunderground v.1.15,2013-01-28 06:01:00,
2013-01-28 01:07:00,18.5,5.4,30.48,WNW,294,0.0,5.0,56,0.00,,,0.00,Wunderground v.1.15,2013-01-28 06:07:00,
2013-01-28 01:13:00,18.5,5.0,30.48,WNW,294,0.0,0.0,55,0.00,,,0.00,Wunderground v.1.15,2013-01-28 06:13:00,
2013-01-28 01:19:00,18.5,5.8,30.48,WNW,294,0.0,0.0,57,0.00,,,0.00,Wunderground v.1.15,2013-01-28 06:19:00,
2013-01-28 01:25:00,18.5,5.0,30.49,WNW,294,0.0,0.0,55,0.00,,,0.00,Wunderground v.1.15,2013-01-28 06:25:00,
2013-01-28 01:31:00,18.5,5.8,30.49,WNW,294,0.0,0.0,57,0.00,,,0.00,Wunderground v.1.15,2013-01-28 06:31:00,
2013-01-28 01:37:00,18.4,6.4,30.49,WNW,294,0.0,0.0,59,0.00,,,0.00,Wunderground v.1.15,2013-01-28 06:37:00,
2013-01-28 01:43:00,18.3,6.0,30.50,WNW,294,0.0,0.0,58,0.00,,,0.00,Wunderground v.1.15,2013-01-28 06:43:00,
2013-01-28 01:49:00,18.2,5.9,30.50,WNW,294,0.0,0.0,58,0.00,,,0.00,Wunderground v.1.15,2013-01-28 06:49:00,
2013-01-28 01:55:00,18.1,6.2,30.50,WNW,294,0.0,0.0,59,0.00,,,0.00,Wunderground v.1.15,2013-01-28 06:55:00,
2013-01-28 02:01:00,18.2,6.3,30.50,WNW,294,0.0,0.0,59,0.00,,,0.00,Wunderground v.1.15,2013-01-28 07:01:00,
2013-01-28 02:07:00,18.2,5.9,30.50,WNW,294,0.0,0.0,58,0.00,,,0.00,Wunderground v.1.15,2013-01-28 07:07:00,
2013-01-28 02:13:00,18.4,6.1,30.50,WNW,294,0.0,0.0,58,0.00,,,0.00,Wunderground v.1.15,2013-01-28 07:13:00,
2013-01-28 02:19:00,18.5,6.5,30.50,WNW,294,0.0,0.0,59,0.00,,,0.00,Wunderground v.1.15,2013-01-28 07:19:00,
2013-01-28 02:25:00,18.7,6.4,30.49,WNW,294,0.0,0.0,58,0.00,,,0.00,Wunderground v.1.15,2013-01-28 07:25:00,
2013-01-28 02:31:00,18.9,6.5,30.49,WNW,294,0.0,0.0,58,0.00,,,0.00,Wunderground v.1.15,2013-01-28 07:31:00,
2013-01-28 02:37:00,18.9,6.2,30.49,WNW,294,0.0,0.0,57,0.00,,,0.00,Wunderground v.1.15,2013-01-28 07:37:00,
2013-01-28 02:43:00,19.0,6.6,30.49,WNW,294,0.0,0.0,58,0.00,,,0.00,Wunderground v.1.15,2013-01-28 07:43:00,
2013-01-28 02:49:00,19.0,6.6,30.48,WNW,294,0.0,0.0,58,0.00,,,0.00,Wunderground v.1.15,2013-01-28 07:49:00,
2013-01-28 02:55:00,19.0,6.6,30.48,WNW,294,0.0,0.0,58,0.00,,,0.00,Wunderground v.1.15,2013-01-28 07:55:00,
2013-01-28 03:01:00,18.9,6.2,30.48,WNW,294,0.0,0.0,57,0.00,,,0.00,Wunderground v.1.15,2013-01-28 08:01:00,
2013-01-28 03:07:00,18.9,6.9,30.48,WNW,294,0.0,0.0,59,0.00,,,0.00,Wunderground v.1.15,2013-01-28 08:07:00,
2013-01-28 03:13:00,18.9,7.3,30.48,WNW,294,0.0,0.0,60,0.00,,,0.00,Wunderground v.1.15,2013-01-28 08:13:00,
2013-01-28 03:19:00,18.8,7.6,30.49,WNW,294,0.0,0.0,61,0.00,,,0.00,Wunderground v.1.15,2013-01-28 08:19:00,
2013-01-28 03:25:00,18.9,7.7,30.48,WNW,294,0.0,0.0,61,0.00,,,0.00,Wunderground v.1.15,2013-01-28 08:25:00,
2013-01-28 03:31:00,19.0,7.7,30.48,WNW,294,0.0,0.0,61,0.00,,,0.00,Wunderground v.1.15,2013-01-28 08:31:00,
2013-01-28 03:37:00,19.3,7.3,30.48,WNW,294,0.0,0.0,59,0.00,,,0.00,Wunderground v.1.15,2013-01-28 08:37:00,
2013-01-28 03:43:00,19.7,6.9,30.48,WNW,294,0.0,0.0,57,0.00,,,0.00,Wunderground v.1.15,2013-01-28 08:43:00,
2013-01-28 03:49:00,19.9,6.7,30.48,WNW,294,0.0,0.0,56,0.00,,,0.00,Wunderground v.1.15,2013-01-28 08:49:00,
2013-01-28 03:55:00,20.0,6.8,30.47,WNW,294,0.0,0.0,56,0.00,,,0.00,Wunderground v.1.15,2013-01-28 08:55:00,
2013-01-28 04:01:00,20.2,7.4,30.47,WNW,294,0.0,0.0,57,0.00,,,0.00,Wunderground v.1.15,2013-01-28 09:01:00,
2013-01-28 04:07:00,20.3,7.1,30.47,WNW,294,0.0,0.0,56,0.00,,,0.00,Wunderground v.1.15,2013-01-28 09:07:00,
2013-01-28 04:13:00,20.3,6.7,30.47,WNW,294,0.0,0.0,55,0.00,,,0.00,Wunderground v.1.15,2013-01-28 09:13:00,
2013-01-28 04:19:00,20.4,6.8,30.47,WNW,294,0.0,0.0,55,0.00,,,0.00,Wunderground v.1.15,2013-01-28 09:19:00,
2013-01-28 04:25:00,20.5,7.7,30.46,WNW,294,0.0,0.0,57,0.00,,,0.00,Wunderground v.1.15,2013-01-28 09:25:00,
2013-01-28 04:31:00,20.5,8.0,30.46,WNW,294,0.0,0.0,58,0.00,,,0.00,Wunderground v.1.15,2013-01-28 09:31:00,
2013-01-28 04:37:00,20.6,7.8,30.46,WNW,294,0.0,0.0,57,0.00,,,0.00,Wunderground v.1.15,2013-01-28 09:37:00,
2013-01-28 04:43:00,20.6,7.4,30.45,WNW,294,0.0,0.0,56,0.00,,,0.00,Wunderground v.1.15,2013-01-28 09:43:00,
2013-01-28 04:49:00,20.6,7.0,30.46,WNW,294,0.0,0.0,55,0.00,,,0.00,Wunderground v.1.15,2013-01-28 09:49:00,
2013-01-28 04:55:00,20.6,7.4,30.46,WNW,294,0.0,0.0,56,0.00,,,0.00,Wunderground v.1.15,2013-01-28 09:55:00,
2013-01-28 05:01:00,20.6,7.0,30.46,WNW,294,0.0,0.0,55,0.00,,,0.00,Wunderground v.1.15,2013-01-28 10:01:00,
2013-01-28 05:07:00,20.6,7.0,30.46,WNW,294,0.0,0.0,55,0.00,,,0.00,Wunderground v.1.15,2013-01-28 10:07:00,
2013-01-28 05:13:00,20.6,7.4,30.46,WNW,294,0.0,0.0,56,0.00,,,0.00,Wunderground v.1.15,2013-01-28 10:13:00,
2013-01-28 05:19:00,20.5,7.3,30.46,WNW,294,0.0,0.0,56,0.00,,,0.00,Wunderground v.1.15,2013-01-28 10:19:00,
2013-01-28 05:25:00,20.4,7.2,30.46,WNW,294,0.0,0.0,56,0.00,,,0.00,Wunderground v.1.15,2013-01-28 10:25:00,
2013-01-28 05:31:00,20.3,7.1,30.46,WNW,294,0.0,0.0,56,0.00,,,0.00,Wunderground v.1.15,2013-01-28 10:31:00,
2013-01-28 05:37:00,20.2,7.0,30.46,WNW,294,0.0,0.0,56,0.00,,,0.00,Wunderground v.1.15,2013-01-28 10:37:00,
2013-01-28 05:43:00,20.2,7.8,30.46,WNW,294,0.0,0.0,58,0.00,,,0.00,Wunderground v.1.15,2013-01-28 10:43:00,
2013-01-28 05:49:00,20.2,7.8,30.46,WNW,294,0.0,0.0,58,0.00,,,0.00,Wunderground v.1.15,2013-01-28 10:49:00,
2013-01-28 05:55:00,20.3,8.2,30.46,WNW,294,0.0,0.0,59,0.00,,,0.00,Wunderground v.1.15,2013-01-28 10:55:00,
2013-01-28 06:01:00,20.3,7.9,30.46,WNW,294,0.0,0.0,58,0.00,,,0.00,Wunderground v.1.15,2013-01-28 11:01:00,
2013-01-28 06:07:00,20.3,8.2,30.46,WNW,294,0.0,0.0,59,0.00,,,0.00,Wunderground v.1.15,2013-01-28 11:07:00,
2013-01-28 06:13:00,20.3,8.2,30.46,WNW,294,0.0,0.0,59,0.00,,,0.00,Wunderground v.1.15,2013-01-28 11:13:00,
2013-01-28 06:19:00,20.3,7.9,30.46,WNW,294,0.0,0.0,58,0.00,,,0.00,Wunderground v.1.15,2013-01-28 11:19:00,
2013-01-28 06:25:00,20.3,7.5,30.46,WNW,294,0.0,0.0,57,0.00,,,0.00,Wunderground v.1.15,2013-01-28 11:25:00,
2013-01-28 06:31:00,20.2,8.1,30.45,WNW,294,0.0,0.0,59,0.00,,,0.00,Wunderground v.1.15,2013-01-28 11:31:00,
2013-01-28 06:37:00,20.2,8.5,30.45,WNW,294,0.0,0.0,60,0.00,,,0.00,Wunderground v.1.15,2013-01-28 11:37:00,
2013-01-28 06:43:00,20.2,8.1,30.45,WNW,294,0.0,0.0,59,0.00,,,0.00,Wunderground v.1.15,2013-01-28 11:43:00,
2013-01-28 06:49:00,20.2,8.1,30.45,WNW,294,0.0,0.0,59,0.00,,,0.00,Wunderground v.1.15,2013-01-28 11:49:00,
2013-01-28 06:55:00,20.2,8.5,30.45,WNW,294,0.0,0.0,60,0.00,,,0.00,Wunderground v.1.15,2013-01-28 11:55:00,
2013-01-28 07:01:00,20.3,8.6,30.45,WNW,294,0.0,0.0,60,0.00,,,0.00,Wunderground v.1.15,2013-01-28 12:01:00,
2013-01-28 07:07:00,20.3,8.6,30.45,WNW,294,0.0,0.0,60,0.00,,,0.00,Wunderground v.1.15,2013-01-28 12:07:00,
2013-01-28 07:13:00,20.3,8.6,30.46,WNW,294,0.0,0.0,60,0.00,,,0.00,Wunderground v.1.15,2013-01-28 12:13:00,
2013-01-28 07:19:00,20.4,8.7,30.46,WNW,294,0.0,0.0,60,0.00,,,0.00,Wunderground v.1.15,2013-01-28 12:19:00,
2013-01-28 07:25:00,20.4,8.7,30.46,WNW,294,0.0,0.0,60,0.00,,,0.00,Wunderground v.1.15,2013-01-28 12:25:00,
2013-01-28 07:31:00,20.4,9.1,30.45,WNW,294,0.0,0.0,61,0.00,,,0.00,Wunderground v.1.15,2013-01-28 12:31:00,
2013-01-28 07:37:00,20.6,9.3,30.45,WNW,294,0.0,0.0,61,0.00,,,0.00,Wunderground v.1.15,2013-01-28 12:37:00,
2013-01-28 07:43:00,20.7,9.0,30.46,WNW,294,0.0,0.0,60,0.00,,,0.00,Wunderground v.1.15,2013-01-28 12:43:00,
2013-01-28 07:49:00,20.9,8.8,30.45,WNW,294,0.0,0.0,59,0.00,,,0.00,Wunderground v.1.15,2013-01-28 12:49:00,
2013-01-28 07:55:00,21.1,9.0,30.46,WNW,294,0.0,0.0,59,0.00,,,0.00,Wunderground v.1.15,2013-01-28 12:55:00,
2013-01-28 08:01:00,21.3,9.2,30.46,WNW,294,0.0,0.0,59,0.00,,,0.00,Wunderground v.1.15,2013-01-28 13:01:00,
2013-01-28 08:07:00,21.6,8.7,30.46,WNW,294,0.0,0.0,57,0.00,,,0.00,Wunderground v.1.15,2013-01-28 13:07:00,
2013-01-28 08:13:00,22.0,9.1,30.45,WNW,294,0.0,0.0,57,0.00,,,0.00,Wunderground v.1.15,2013-01-28 13:13:00,
2013-01-28 08:19:00,22.4,9.1,30.46,WNW,294,0.0,0.0,56,0.00,,,0.00,Wunderground v.1.15,2013-01-28 13:19:00,
2013-01-28 08:25:00,22.8,8.6,30.46,WNW,294,0.0,0.0,54,0.00,,,0.00,Wunderground v.1.15,2013-01-28 13:25:00,
2013-01-28 08:31:00,23.1,8.5,30.45,WNW,294,0.0,0.0,53,0.00,,,0.00,Wunderground v.1.15,2013-01-28 13:31:00,
2013-01-28 08:37:00,23.5,8.4,30.45,WNW,294,0.0,0.0,52,0.00,,,0.00,Wunderground v.1.15,2013-01-28 13:37:00,
2013-01-28 08:43:00,23.9,8.8,30.45,WNW,294,0.0,0.0,52,0.00,,,0.00,Wunderground v.1.15,2013-01-28 13:43:00,
2013-01-28 08:49:00,24.2,8.7,30.45,WNW,294,0.0,0.0,51,0.00,,,0.00,Wunderground v.1.15,2013-01-28 13:49:00,
2013-01-28 08:55:00,24.5,8.5,30.45,WNW,294,0.0,0.0,50,0.00,,,0.00,Wunderground v.1.15,2013-01-28 13:55:00,
2013-01-28 09:01:00,24.8,8.8,30.45,WNW,294,0.0,0.0,50,0.00,,,0.00,Wunderground v.1.15,2013-01-28 14:01:00,
2013-01-28 09:07:00,25.2,8.7,30.45,WNW,294,0.0,0.0,49,0.00,,,0.00,Wunderground v.1.15,2013-01-28 14:07:00,
2013-01-28 09:13:00,25.5,8.5,30.45,WNW,294,0.0,0.0,48,0.00,,,0.00,Wunderground v.1.15,2013-01-28 14:13:00,
2013-01-28 09:19:00,25.7,8.2,30.45,WNW,294,0.0,0.0,47,0.00,,,0.00,Wunderground v.1.15,2013-01-28 14:19:00,
2013-01-28 09:25:00,26.0,8.5,30.44,WNW,294,0.0,0.0,47,0.00,,,0.00,Wunderground v.1.15,2013-01-28 14:25:00,
2013-01-28 09:31:00,26.1,8.1,30.44,WNW,294,0.0,0.0,46,0.00,,,0.00,Wunderground v.1.15,2013-01-28 14:31:00,
2013-01-28 09:37:00,26.5,8.5,30.44,WNW,294,0.0,0.0,46,0.00,,,0.00,Wunderground v.1.15,2013-01-28 14:37:00,
2013-01-28 09:43:00,26.9,8.4,30.44,WNW,294,0.0,0.0,45,0.00,,,0.00,Wunderground v.1.15,2013-01-28 14:43:00,
2013-01-28 09:49:00,27.0,8.0,30.44,WNW,294,0.0,0.0,44,0.00,,,0.00,Wunderground v.1.15,2013-01-28 14:49:00,
2013-01-28 09:55:00,27.3,7.7,30.44,WNW,294,0.0,0.0,43,0.00,,,0.00,Wunderground v.1.15,2013-01-28 14:55:00,
2013-01-28 10:01:00,27.6,7.5,30.44,WNW,294,0.0,0.0,42,0.00,,,0.00,Wunderground v.1.15,2013-01-28 15:01:00,
2013-01-28 10:07:00,27.9,7.7,30.44,WNW,294,0.0,0.0,42,0.00,,,0.00,Wunderground v.1.15,2013-01-28 15:07:00,
2013-01-28 10:13:00,28.1,7.9,30.44,WNW,294,0.0,0.0,42,0.00,,,0.00,Wunderground v.1.15,2013-01-28 15:13:00,
2013-01-28 10:19:00,28.3,8.1,30.44,WNW,294,0.0,0.0,42,0.00,,,0.00,Wunderground v.1.15,2013-01-28 15:19:00,
2013-01-28 10:25:00,28.6,7.8,30.43,WNW,294,0.0,0.0,41,0.00,,,0.00,Wunderground v.1.15,2013-01-28 15:25:00,
2013-01-28 10:31:00,28.7,7.9,30.43,WNW,294,0.0,0.0,41,0.00,,,0.00,Wunderground v.1.15,2013-01-28 15:31:00,
2013-01-28 10:37:00,28.9,8.1,30.42,WNW,294,0.0,0.0,41,0.00,,,0.00,Wunderground v.1.15,2013-01-28 15:37:00,
2013-01-28 10:43:00,29.2,7.8,30.42,WNW,294,0.0,0.0,40,0.00,,,0.00,Wunderground v.1.15,2013-01-28 15:43:00,
2013-01-28 10:49:00,29.4,7.5,30.41,WNW,294,0.0,0.0,39,0.00,,,0.00,Wunderground v.1.15,2013-01-28 15:49:00,
2013-01-28 10:55:00,29.4,7.5,30.41,WNW,294,0.0,0.0,39,0.00,,,0.00,Wunderground v.1.15,2013-01-28 15:55:00,
2013-01-28 11:01:00,29.6,8.2,30.40,WNW,294,0.0,0.0,40,0.00,,,0.00,Wunderground v.1.15,2013-01-28 16:01:00,
2013-01-28 11:07:00,29.8,7.8,30.40,WNW,294,0.0,0.0,39,0.00,,,0.00,Wunderground v.1.15,2013-01-28 16:07:00,
2013-01-28 11:13:00,30.0,8.0,30.39,WNW,294,0.0,0.0,39,0.00,,,0.00,Wunderground v.1.15,2013-01-28 16:13:00,
2013-01-28 11:19:00,30.1,7.5,30.39,WNW,294,0.0,0.0,38,0.00,,,0.00,Wunderground v.1.15,2013-01-28 16:19:00,
2013-01-28 11:25:00,30.2,7.6,30.39,WNW,294,0.0,0.0,38,0.00,,,0.00,Wunderground v.1.15,2013-01-28 16:25:00,
2013-01-28 11:31:00,30.5,7.9,30.38,WNW,294,0.0,0.0,38,0.00,,,0.00,Wunderground v.1.15,2013-01-28 16:31:00,
2013-01-28 11:37:00,30.6,8.0,30.38,WNW,294,0.0,0.0,38,0.00,,,0.00,Wunderground v.1.15,2013-01-28 16:37:00,
2013-01-28 11:43:00,30.7,8.6,30.38,WNW,294,0.0,0.0,39,0.00,,,0.00,Wunderground v.1.15,2013-01-28 16:43:00,
2013-01-28 11:49:00,30.8,8.1,30.38,WNW,292,0.0,0.0,38,0.00,,,0.00,Wunderground v.1.15,2013-01-28 16:49:00,
2013-01-28 11:55:00,30.9,7.6,30.37,WNW,293,0.0,0.0,37,0.00,,,0.00,Wunderground v.1.15,2013-01-28 16:55:00,
2013-01-28 12:01:00,31.0,7.7,30.36,WNW,287,0.0,1.0,37,0.00,,,0.00,Wunderground v.1.15,2013-01-28 17:01:00,
2013-01-28 12:07:00,30.8,7.6,30.35,WNW,286,0.0,1.0,37,0.00,,,0.00,Wunderground v.1.15,2013-01-28 17:07:00,
2013-01-28 12:13:00,30.8,8.1,30.35,West,280,0.0,2.0,38,0.00,,,0.00,Wunderground v.1.15,2013-01-28 17:13:00,
2013-01-28 12:19:00,30.9,8.2,30.35,West,280,0.0,0.0,38,0.00,,,0.00,Wunderground v.1.15,2013-01-28 17:19:00,
2013-01-28 12:25:00,31.0,7.7,30.35,West,280,0.0,0.0,37,0.00,,,0.00,Wunderground v.1.15,2013-01-28 17:25:00,
2013-01-28 12:31:00,31.0,8.3,30.35,West,280,0.0,0.0,38,0.00,,,0.00,Wunderground v.1.15,2013-01-28 17:31:00,
2013-01-28 12:37:00,31.1,8.4,30.35,West,280,0.0,0.0,38,0.00,,,0.00,Wunderground v.1.15,2013-01-28 17:37:00,
2013-01-28 12:43:00,31.1,8.4,30.34,West,280,0.0,0.0,38,0.00,,,0.00,Wunderground v.1.15,2013-01-28 17:43:00,
2013-01-28 12:49:00,31.2,9.1,30.32,West,280,0.0,0.0,39,0.00,,,0.00,Wunderground v.1.15,2013-01-28 17:49:00,
2013-01-28 12:55:00,31.3,8.6,30.32,West,280,0.0,0.0,38,0.00,,,0.00,Wunderground v.1.15,2013-01-28 17:55:00,
2013-01-28 13:01:00,31.3,8.6,30.32,West,280,0.0,0.0,38,0.00,,,0.00,Wunderground v.1.15,2013-01-28 18:01:00,
2013-01-28 13:07:00,31.3,8.6,30.32,West,280,0.0,0.0,38,0.00,,,0.00,Wunderground v.1.15,2013-01-28 18:07:00,
2013-01-28 13:13:00,31.4,8.7,30.31,West,280,0.0,0.0,38,0.00,,,0.00,Wunderground v.1.15,2013-01-28 18:13:00,
2013-01-28 13:19:00,31.4,8.7,30.31,West,276,0.0,0.0,38,0.00,,,0.00,Wunderground v.1.15,2013-01-28 18:19:00,
2013-01-28 13:25:00,31.5,9.4,30.29,West,276,0.0,0.0,39,0.00,,,0.00,Wunderground v.1.15,2013-01-28 18:25:00,
2013-01-28 13:31:00,31.6,8.9,30.29,NNW,332,0.0,0.0,38,0.00,,,0.00,Wunderground v.1.15,2013-01-28 18:31:00,
2013-01-28 13:37:00,31.6,10.0,30.28,WNW,290,0.0,0.0,40,0.00,,,0.00,Wunderground v.1.15,2013-01-28 18:37:00,
2013-01-28 13:43:00,31.5,11.5,30.28,SE,135,1.0,1.0,43,0.00,,,0.00,Wunderground v.1.15,2013-01-28 18:43:00,
2013-01-28 13:49:00,31.4,13.0,30.28,South,173,0.0,0.0,46,0.00,,,0.00,Wunderground v.1.15,2013-01-28 18:49:00,
2013-01-28 13:55:00,31.2,12.8,30.27,SE,128,0.0,0.0,46,0.00,,,0.00,Wunderground v.1.15,2013-01-28 18:55:00,
2013-01-28 14:01:00,31.0,14.0,30.27,SSW,192,0.0,0.0,49,0.00,,,0.00,Wunderground v.1.15,2013-01-28 19:01:00,
2013-01-28 14:07:00,30.8,14.3,30.26,South,191,0.0,1.0,50,0.00,,,0.00,Wunderground v.1.15,2013-01-28 19:07:00,
2013-01-28 14:13:00,30.7,15.1,30.25,WNW,286,0.0,0.0,52,0.00,,,0.00,Wunderground v.1.15,2013-01-28 19:13:00,
2013-01-28 14:19:00,30.7,15.6,30.25,East,88,0.0,0.0,53,0.00,,,0.00,Wunderground v.1.15,2013-01-28 19:19:00,
2013-01-28 14:25:00,30.5,16.7,30.25,NW,304,0.0,0.0,56,0.00,,,0.00,Wunderground v.1.15,2013-01-28 19:25:00,
2013-01-28 14:31:00,30.3,18.1,30.25,SSE,167,0.0,1.0,60,0.00,,,0.00,Wunderground v.1.15,2013-01-28 19:31:00,
2013-01-28 14:37:00,30.2,18.4,30.25,SSE,167,0.0,1.0,61,0.00,,,0.00,Wunderground v.1.15,2013-01-28 19:37:00,
2013-01-28 14:43:00,30.1,19.4,30.25,SSE,154,0.0,0.0,64,0.00,,,0.00,Wunderground v.1.15,2013-01-28 19:43:00,
2013-01-28 14:49:00,29.8,20.2,30.25,WNW,292,0.0,0.0,67,0.00,,,0.00,Wunderground v.1.15,2013-01-28 19:49:00,
2013-01-28 14:55:00,29.4,20.8,30.25,SE,136,0.0,0.0,70,0.00,,,0.00,Wunderground v.1.15,2013-01-28 19:55:00,
2013-01-28 15:01:00,29.1,21.5,30.24,SE,145,0.0,1.0,73,0.00,,,0.00,Wunderground v.1.15,2013-01-28 20:01:00,
2013-01-28 15:07:00,28.6,21.7,30.24,SSW,209,0.0,1.0,75,0.00,,,0.00,Wunderground v.1.15,2013-01-28 20:07:00,
2013-01-28 15:13:00,28.2,21.9,30.23,SW,226,0.0,0.0,77,0.00,,,0.00,Wunderground v.1.15,2013-01-28 20:13:00,
2013-01-28 15:19:00,28.0,22.3,30.24,SW,221,0.0,0.0,79,0.00,,,0.00,Wunderground v.1.15,2013-01-28 20:19:00,
2013-01-28 15:25:00,28.0,22.6,30.24,SW,221,0.0,0.0,80,0.00,,,0.00,Wunderground v.1.15,2013-01-28 20:25:00,
2013-01-28 15:31:00,28.0,22.9,30.23,SW,221,0.0,0.0,81,0.00,,,0.00,Wunderground v.1.15,2013-01-28 20:31:00,
2013-01-28 15:37:00,27.9,22.8,30.23,SW,221,0.0,0.0,81,0.00,,,0.00,Wunderground v.1.15,2013-01-28 20:37:00,
2013-01-28 15:43:00,27.8,23.0,30.23,SW,221,0.0,0.0,82,0.00,,,0.00,Wunderground v.1.15,2013-01-28 20:43:00,
2013-01-28 15:49:00,27.9,23.4,30.22,SW,221,0.0,0.0,83,0.00,,,0.00,Wunderground v.1.15,2013-01-28 20:49:00,
2013-01-28 15:55:00,27.9,23.4,30.23,SW,221,0.0,0.0,83,0.00,,,0.00,Wunderground v.1.15,2013-01-28 20:55:00,
2013-01-28 16:01:00,27.9,23.4,30.23,SW,220,0.0,0.0,83,0.00,,,0.00,Wunderground v.1.15,2013-01-28 21:01:00,
2013-01-28 16:07:00,27.8,23.3,30.23,SW,221,0.0,0.0,83,0.00,,,0.00,Wunderground v.1.15,2013-01-28 21:07:00,
2013-01-28 16:13:00,27.7,23.2,30.23,SW,227,0.0,0.0,83,0.00,,,0.00,Wunderground v.1.15,2013-01-28 21:13:00,
2013-01-28 16:19:00,27.8,23.3,30.23,South,178,0.0,0.0,83,0.00,,,0.00,Wunderground v.1.15,2013-01-28 21:19:00,
2013-01-28 16:25:00,27.8,23.3,30.23,South,179,0.0,0.0,83,0.00,,,0.00,Wunderground v.1.15,2013-01-28 21:25:00,
2013-01-28 16:31:00,27.8,23.3,30.21,East,80,0.0,2.0,83,0.00,,,0.00,Wunderground v.1.15,2013-01-28 21:31:00,
2013-01-28 16:37:00,27.7,23.5,30.21,ESE,109,0.0,2.0,84,0.00,,,0.00,Wunderground v.1.15,2013-01-28 21:37:00,
2013-01-28 16:43:00,27.4,23.2,30.20,ESE,109,0.0,2.0,84,0.00,,,0.00,Wunderground v.1.15,2013-01-28 21:43:00,
2013-01-28 16:49:00,27.3,23.4,30.19,ESE,109,0.0,0.0,85,0.00,,,0.00,Wunderground v.1.15,2013-01-28 21:49:00,
2013-01-28 16:55:00,27.3,23.4,30.19,ESE,114,0.0,0.0,85,0.00,,,0.00,Wunderground v.1.15,2013-01-28 21:55:00,
2013-01-28 17:01:00,27.2,23.3,30.19,ESE,122,0.0,2.0,85,0.00,,,0.00,Wunderground v.1.15,2013-01-28 22:01:00,
2013-01-28 17:07:00,27.2,23.6,30.19,ESE,122,0.0,2.0,86,0.00,,,0.00,Wunderground v.1.15,2013-01-28 22:07:00,
2013-01-28 17:13:00,27.2,23.6,30.19,ESE,122,0.0,0.0,86,0.00,,,0.00,Wunderground v.1.15,2013-01-28 22:13:00,
2013-01-28 17:19:00,27.3,23.7,30.18,ESE,122,0.0,0.0,86,0.00,,,0.00,Wunderground v.1.15,2013-01-28 22:19:00,
2013-01-28 17:25:00,27.4,23.8,30.17,ESE,122,0.0,0.0,86,0.00,,,0.00,Wunderground v.1.15,2013-01-28 22:25:00,
2013-01-28 17:31:00,27.4,23.8,30.17,ESE,122,0.0,0.0,86,0.00,,,0.00,Wunderground v.1.15,2013-01-28 22:31:00,
2013-01-28 17:37:00,27.4,23.8,30.17,ESE,122,0.0,0.0,86,0.00,,,0.00,Wunderground v.1.15,2013-01-28 22:37:00,
2013-01-28 17:43:00,27.5,24.1,30.16,ESE,122,0.0,0.0,87,0.00,,,0.00,Wunderground v.1.15,2013-01-28 22:43:00,
2013-01-28 17:49:00,27.5,23.9,30.16,ESE,122,0.0,0.0,86,0.00,,,0.00,Wunderground v.1.15,2013-01-28 22:49:00,
2013-01-28 17:55:00,27.4,24.0,30.16,ESE,121,0.0,0.0,87,0.00,,,0.00,Wunderground v.1.15,2013-01-28 22:55:00,
2013-01-28 18:01:00,27.4,24.0,30.16,ESE,121,0.0,0.0,87,0.00,,,0.00,Wunderground v.1.15,2013-01-28 23:01:00,
2013-01-28 18:07:00,27.5,24.1,30.16,ESE,121,0.0,0.0,87,0.00,,,0.00,Wunderground v.1.15,2013-01-28 23:07:00,
2013-01-28 18:13:00,27.5,24.1,30.15,ESE,121,0.0,0.0,87,0.00,,,0.00,Wunderground v.1.15,2013-01-28 23:13:00,
2013-01-28 18:19:00,27.5,24.1,30.15,ESE,121,0.0,0.0,87,0.00,,,0.00,Wunderground v.1.15,2013-01-28 23:19:00,
2013-01-28 18:25:00,27.5,24.1,30.14,ESE,121,0.0,0.0,87,0.00,,,0.00,Wunderground v.1.15,2013-01-28 23:25:00,
2013-01-28 18:31:00,27.5,24.1,30.14,ESE,121,0.0,0.0,87,0.00,,,0.00,Wunderground v.1.15,2013-01-28 23:31:00,
2013-01-28 18:37:00,27.5,24.1,30.15,ESE,121,0.0,0.0,87,0.00,,,0.00,Wunderground v.1.15,2013-01-28 23:37:00,
2013-01-28 18:43:00,27.5,24.1,30.16,ESE,121,0.0,0.0,87,0.00,,,0.00,Wunderground v.1.15,2013-01-28 23:43:00,
2013-01-28 18:49:00,27.6,24.2,30.16,ESE,121,0.0,0.0,87,0.00,,,0.00,Wunderground v.1.15,2013-01-28 23:49:00,
2013-01-28 18:55:00,27.7,24.3,30.15,ESE,121,0.0,0.0,87,0.00,,,0.00,Wunderground v.1.15,2013-01-28 23:55:00,
2013-01-28 19:01:00,27.8,24.4,30.13,ESE,121,0.0,0.0,87,0.00,,,0.00,Wunderground v.1.15,2013-01-29 00:01:00,
2013-01-28 19:07:00,27.9,24.5,30.12,ESE,121,0.0,0.0,87,0.00,,,0.00,Wunderground v.1.15,2013-01-29 00:07:00,
2013-01-28 19:13:00,27.9,24.5,30.13,ESE,121,0.0,0.0,87,0.00,,,0.00,Wunderground v.1.15,2013-01-29 00:13:00,
2013-01-28 19:19:00,27.9,24.5,30.13,ESE,121,0.0,0.0,87,0.00,,,0.00,Wunderground v.1.15,2013-01-29 00:19:00,
2013-01-28 19:25:00,27.9,24.5,30.14,ESE,121,0.0,0.0,87,0.00,,,0.00,Wunderground v.1.15,2013-01-29 00:25:00,
2013-01-28 19:31:00,28.0,24.6,30.16,ESE,121,0.0,0.0,87,0.00,,,0.00,Wunderground v.1.15,2013-01-29 00:31:00,
2013-01-28 19:37:00,28.0,24.6,30.15,ESE,121,0.0,0.0,87,0.00,,,0.00,Wunderground v.1.15,2013-01-29 00:37:00,
2013-01-28 19:43:00,28.1,24.7,30.14,ESE,121,0.0,0.0,87,0.00,,,0.00,Wunderground v.1.15,2013-01-29 00:43:00,
2013-01-28 19:49:00,28.1,24.7,30.13,ESE,121,0.0,0.0,87,0.00,,,0.00,Wunderground v.1.15,2013-01-29 00:49:00,
2013-01-28 19:55:00,28.1,24.7,30.14,ESE,121,0.0,0.0,87,0.00,,,0.00,Wunderground v.1.15,2013-01-29 00:55:00,
2013-01-28 20:01:00,28.1,24.7,30.14,ESE,121,0.0,0.0,87,0.00,,,0.00,Wunderground v.1.15,2013-01-29 01:01:00,
2013-01-28 20:07:00,28.1,24.7,30.13,ESE,121,0.0,0.0,87,0.00,,,0.00,Wunderground v.1.15,2013-01-29 01:07:00,
2013-01-28 20:13:00,28.1,24.7,30.12,ESE,121,0.0,0.0,87,0.00,,,0.00,Wunderground v.1.15,2013-01-29 01:13:00,
2013-01-28 20:19:00,28.1,24.7,30.11,ESE,121,0.0,0.0,87,0.00,,,0.00,Wunderground v.1.15,2013-01-29 01:19:00,
2013-01-28 20:25:00,28.2,24.8,30.13,ESE,121,0.0,0.0,87,0.00,,,0.00,Wunderground v.1.15,2013-01-29 01:25:00,
2013-01-28 20:31:00,28.2,25.1,30.11,ESE,121,0.0,0.0,88,0.00,,,0.00,Wunderground v.1.15,2013-01-29 01:31:00,
2013-01-28 20:37:00,28.3,25.2,30.11,ESE,121,0.0,0.0,88,0.00,,,0.00,Wunderground v.1.15,2013-01-29 01:37:00,
2013-01-28 20:43:00,28.4,25.3,30.11,ESE,121,0.0,0.0,88,0.00,,,0.00,Wunderground v.1.15,2013-01-29 01:43:00,
2013-01-28 20:49:00,28.4,25.3,30.11,ESE,121,0.0,0.0,88,0.00,,,0.00,Wunderground v.1.15,2013-01-29 01:49:00,
2013-01-28 20:55:00,28.4,25.3,30.10,ESE,121,0.0,0.0,88,0.00,,,0.00,Wunderground v.1.15,2013-01-29 01:55:00,
2013-01-28 21:01:00,28.3,25.2,30.10,ESE,121,0.0,0.0,88,0.00,,,0.00,Wunderground v.1.15,2013-01-29 02:01:00,
2013-01-28 21:07:00,28.3,25.2,30.08,ESE,121,0.0,0.0,88,0.00,,,0.00,Wunderground v.1.15,2013-01-29 02:07:00,
2013-01-28 21:13:00,28.4,25.3,30.08,ESE,121,0.0,0.0,88,0.00,,,0.00,Wunderground v.1.15,2013-01-29 02:13:00,
2013-01-28 21:19:00,28.4,25.3,30.09,ESE,121,0.0,0.0,88,0.00,,,0.00,Wunderground v.1.15,2013-01-29 02:19:00,
2013-01-28 21:25:00,28.4,25.3,30.09,ESE,121,0.0,0.0,88,0.00,,,0.00,Wunderground v.1.15,2013-01-29 02:25:00,
2013-01-28 21:31:00,28.4,25.3,30.08,ESE,121,0.0,0.0,88,0.00,,,0.00,Wunderground v.1.15,2013-01-29 02:31:00,
2013-01-28 21:37:00,28.4,25.3,30.08,ESE,121,0.0,0.0,88,0.00,,,0.00,Wunderground v.1.15,2013-01-29 02:37:00,
2013-01-28 21:43:00,28.4,25.3,30.08,ESE,121,0.0,0.0,88,0.00,,,0.00,Wunderground v.1.15,2013-01-29 02:43:00,
2013-01-28 21:49:00,28.4,25.3,30.08,ESE,121,0.0,0.0,88,0.00,,,0.00,Wunderground v.1.15,2013-01-29 02:49:00,
2013-01-28 21:55:00,28.4,25.3,30.08,ESE,121,0.0,0.0,88,0.00,,,0.00,Wunderground v.1.15,2013-01-29 02:55:00,
2013-01-28 22:01:00,28.4,25.3,30.08,ESE,121,0.0,0.0,88,0.00,,,0.00,Wunderground v.1.15,2013-01-29 03:01:00,
2013-01-28 22:07:00,28.4,25.3,30.07,ESE,121,0.0,0.0,88,0.00,,,0.00,Wunderground v.1.15,2013-01-29 03:07:00,
2013-01-28 22:13:00,28.5,25.4,30.07,ESE,121,0.0,0.0,88,0.00,,,0.00,Wunderground v.1.15,2013-01-29 03:13:00,
2013-01-28 22:19:00,28.5,25.4,30.08,ESE,121,0.0,0.0,88,0.00,,,0.00,Wunderground v.1.15,2013-01-29 03:19:00,
2013-01-28 22:25:00,28.5,25.4,30.08,ESE,121,0.0,0.0,88,0.00,,,0.00,Wunderground v.1.15,2013-01-29 03:25:00,
2013-01-28 22:31:00,28.5,25.4,30.07,ESE,121,0.0,0.0,88,0.00,,,0.00,Wunderground v.1.15,2013-01-29 03:31:00,
2013-01-28 22:37:00,28.5,25.4,30.08,ESE,121,0.0,0.0,88,0.00,,,0.00,Wunderground v.1.15,2013-01-29 03:37:00,
2013-01-28 22:43:00,28.5,25.4,30.08,ESE,121,0.0,0.0,88,0.00,,,0.00,Wunderground v.1.15,2013-01-29 03:43:00,
2013-01-28 22:49:00,28.5,25.4,30.08,ESE,121,0.0,0.0,88,0.00,,,0.00,Wunderground v.1.15,2013-01-29 03:49:00,
2013-01-28 22:55:00,28.5,25.4,30.07,ESE,121,0.0,0.0,88,0.00,,,0.00,Wunderground v.1.15,2013-01-29 03:55:00,
2013-01-28 23:01:00,28.6,25.5,30.07,ESE,121,0.0,0.0,88,0.00,,,0.00,Wunderground v.1.15,2013-01-29 04:01:00,
2013-01-28 23:07:00,28.5,25.4,30.07,ESE,121,0.0,0.0,88,0.00,,,0.00,Wunderground v.1.15,2013-01-29 04:07:00,
2013-01-28 23:13:00,28.5,25.4,30.07,ESE,121,0.0,0.0,88,0.00,,,0.00,Wunderground v.1.15,2013-01-29 04:13:00,
2013-01-28 23:19:00,28.5,25.4,30.07,ESE,121,0.0,0.0,88,0.00,,,0.00,Wunderground v.1.15,2013-01-29 04:19:00,
2013-01-28 23:25:00,28.5,25.4,30.07,ESE,121,0.0,0.0,88,0.00,,,0.00,Wunderground v.1.15,2013-01-29 04:25:00,
2013-01-28 23:31:00,28.4,25.3,30.07,ESE,121,0.0,0.0,88,0.00,,,0.00,Wunderground v.1.15,2013-01-29 04:31:00,
2013-01-28 23:37:00,28.4,25.3,30.07,ESE,121,0.0,0.0,88,0.00,,,0.00,Wunderground v.1.15,2013-01-29 04:37:00,
2013-01-28 23:43:00,28.5,25.4,30.07,ESE,121,0.0,0.0,88,0.00,,,0.00,Wunderground v.1.15,2013-01-29 04:43:00,
2013-01-28 23:49:00,28.4,25.3,30.07,ESE,121,0.0,0.0,88,0.00,,,0.00,Wunderground v.1.15,2013-01-29 04:49:00,
2013-01-28 23:55:00,28.4,25.3,30.07,ESE,121,0.0,0.0,88,0.00,,,0.00,Wunderground v.1.15,2013-01-29 04:55:00,